カタログに戻る

CZ-6A DEB

運用中SSO
NORAD 54462·DEBRIS·🇨🇳 China

打ち上げ Nov 11, 2022 から Taiyuan Satellite Launch Center

Loading…

次のパス (今後24時間)

TLE

最新Source: Space-Track

元期: Sep 14, 2026, 07:28 UTC

1 54462U 22151GN  26257.31156581  .00002804  00000-0  14380-2 0  9996
2 54462  98.7094 216.1405 0154292  53.6184 307.9109 14.10212066196322

AllMySatでCZ-6A DEBをリアルタイム追跡

Download on the App Store